Flag for Germany Weather past 2 weeks in Emmendingen, Baden-Württemberg, Germany

Now
48 °F

Passing clouds.


Feels Like: 44 °F
Forecast: 34 / 43 °F
Wind: 10 mph from West

Location: Lahr - CAN-AFB

Current Time: Mar 4, 2015 at 2:32:31 PM

Latest Report: Mar 4, 2015 at 1:50 PM


Visibility: N/A

Pressure: 30.36 "Hg

Humidity: 43%

Dew point: 27 °F

Location of EmmendingenLocation

Historic Weather in Emmendingen — Graph

°F

Emmendingen temperature yesterday

Maximum temperature yesterday: 55 °F (at 3:20 PM)
Minimum temperature yesterday: 39 °F (at 8:20 AM)
Average temperature yesterday: 49 °F

Past Weeks' High & Low Weather Summary

 TemperatureHumidityPressure
High57 °F (Feb 20, 2:20 PM)93% (Feb 17, 7:20 PM)30.72 "Hg (Feb 17, 7:20 PM)
Low30 °F (Feb 19, 7:20 PM)32% (Feb 26, 2:50 PM)29.53 "Hg (Feb 23, 2:20 PM)
Average43 °F68%30.09 "Hg
* Reported Feb 17 1:20 PM — Mar 4 1:20 PM, Emmendingen, Weather by CustomWeather, © 2015

Note: Actual official high and low records may vary slightly from our data, if they occured in-between our weather recording intervals... More about our weather records

Advertising

Emmendingen weather history for previous 24 hours

 ConditionsComfort  
Time TempWeatherWind HumidityBarometerVisibility
1:20 PM
Wed, Mar 4
46 °FScattered clouds.7 mph50%30.36 "HgN/A
12:50 PM45 °FScattered clouds.12 mph53%30.36 "HgN/A
11:50 AM45 °FPassing clouds.9 mph53%30.36 "HgN/A
11:20 AM45 °FPassing clouds.12 mph61%30.36 "HgN/A
10:50 AM45 °FPassing clouds.7 mph57%30.36 "HgN/A
10:20 AM43 °FPassing clouds.6 mph66%30.36 "HgN/A
9:50 AM41 °FPassing clouds.6 mph70%30.33 "HgN/A
8:50 AM41 °FScattered clouds.5 mph70%30.33 "HgN/A
8:20 AM39 °FScattered clouds.5 mph75%30.33 "HgN/A
7:50 AM37 °FBroken clouds.5 mph87%30.30 "HgN/A
12:20 AM41 °FLight rain. Passing clouds.12 mph87%30.21 "HgN/A
7:50 PM
Tue, Mar 3
48 °FClear.12 mph50%30.15 "Hg10 mi
7:20 PM48 °FClear.12 mph50%30.15 "Hg10 mi
6:50 PM50 °FClear.10 mph47%30.15 "Hg10 mi
6:20 PM50 °FClear.9 mph43%30.12 "Hg10 mi
5:50 PM50 °FSunny.12 mph43%30.12 "Hg10 mi
5:20 PM52 °FSunny.13 mph41%30.12 "Hg10 mi
4:50 PM54 °FSunny.14 mph38%30.12 "Hg10 mi
4:20 PM55 °FSunny.13 mph38%30.12 "Hg10 mi
3:50 PM55 °FPassing clouds.14 mph36%30.12 "HgN/A
3:20 PM55 °FSunny.15 mph41%30.12 "Hg10 mi
2:50 PM54 °FPassing clouds.16 mph41%30.15 "HgN/A
2:20 PM54 °FSunny.16 mph44%30.15 "Hg10 mi
Weather by CustomWeather, © 2015

See weather overviewHow to use our weather pages